Previsão horária em Abay

Hoje, 12 Abril, Segunda-feira

Tempo Temperatura Precipitação Vento Pressão Humidade
00:00 +2°C° 0 mm 6 m/s 726 mmHg 62%
01:00 +1°C° 0 mm 5 m/s 726 mmHg 64%
02:00 0°C° 0 mm 5 m/s 726 mmHg 66%
03:00 0°C° 0 mm 4 m/s 726 mmHg 66%
04:00 -1°C° 0 mm 4 m/s 726 mmHg 66%
05:00 -1°C° 0 mm 4 m/s 726 mmHg 65%
06:00 0°C° 0 mm 5 m/s 726 mmHg 58%
07:00 +2°C° 0 mm 6 m/s 726 mmHg 50%
08:00 +4°C° 0 mm 7 m/s 726 mmHg 43%
09:00 +6°C° 0 mm 7 m/s 726 mmHg 38%
10:00 +9°C° 0 mm 7 m/s 726 mmHg 33%
11:00 +11°C° 0 mm 7 m/s 726 mmHg 26%
12:00 +14°C° 0 mm 7 m/s 725 mmHg 24%
13:00 +15°C° 0 mm 7 m/s 725 mmHg 22%
14:00 +16°C° 0 mm 7 m/s 725 mmHg 21%
15:00 +16°C° 0 mm 7 m/s 725 mmHg 22%
16:00 +16°C° 0 mm 6 m/s 725 mmHg 23%
17:00 +16°C° 0 mm 6 m/s 725 mmHg 25%
18:00 +14°C° 0 mm 5 m/s 724 mmHg 31%
19:00 +12°C° 0 mm 5 m/s 724 mmHg 37%
20:00 +9°C° 0 mm 5 m/s 724 mmHg 43%
21:00 +8°C° 0 mm 4 m/s 724 mmHg 45%
22:00 +7°C° 0 mm 4 m/s 725 mmHg 48%
23:00 +6°C° 0 mm 4 m/s 725 mmHg 50%

Amanhã, 13 Abril, Terça-feira

Tempo Temperatura Precipitação Vento Pressão Humidade
00:00 +6°C° 0 mm 4 m/s 725 mmHg 52%
01:00 +5°C° 0 mm 4 m/s 725 mmHg 53%
02:00 +4°C° 0 mm 4 m/s 725 mmHg 55%
03:00 +3°C° 0 mm 4 m/s 725 mmHg 57%
04:00 +3°C° 0 mm 4 m/s 725 mmHg 59%
05:00 +1°C° 0 mm 4 m/s 725 mmHg 60%
06:00 +2°C° 0 mm 5 m/s 726 mmHg 57%
07:00 +3°C° 0 mm 5 m/s 726 mmHg 53%
08:00 +5°C° 0 mm 6 m/s 726 mmHg 50%
09:00 +6°C° 0 mm 7 m/s 727 mmHg 52%
10:00 +9°C° 0 mm 7 m/s 727 mmHg 55%
11:00 +10°C° 0 mm 8 m/s 727 mmHg 57%
12:00 +9°C° 0 mm 8 m/s 727 mmHg 63%
13:00 +9°C° 0 mm 8 m/s 727 mmHg 68%
14:00 +7°C° 0 mm 9 m/s 728 mmHg 74%
15:00 +7°C° 0 mm 8 m/s 728 mmHg 68%
16:00 +7°C° 0 mm 8 m/s 728 mmHg 63%
17:00 +6°C° 0 mm 8 m/s 728 mmHg 58%
18:00 +6°C° 0 mm 8 m/s 728 mmHg 60%
19:00 +5°C° 0 mm 7 m/s 728 mmHg 62%
20:00 +4°C° 0 mm 6 m/s 729 mmHg 64%
21:00 +3°C° 0 mm 6 m/s 729 mmHg 65%
22:00 +3°C° 0 mm 6 m/s 729 mmHg 66%
23:00 +2°C° 0 mm 5 m/s 729 mmHg 68%

Depois de amanhã, 14 Abril, Quarta-feira

Tempo Temperatura Precipitação Vento Pressão Humidade
00:00 +1°C° 0 mm 5 m/s 729 mmHg 70%
01:00 +1°C° 0 mm 5 m/s 728 mmHg 72%
02:00 0°C° 0 mm 4 m/s 728 mmHg 75%
03:00 0°C° 0 mm 4 m/s 728 mmHg 75%
04:00 -1°C° 0 mm 4 m/s 728 mmHg 76%
05:00 -1°C° 0 mm 4 m/s 728 mmHg 76%
06:00 0°C° 0 mm 5 m/s 728 mmHg 69%
07:00 +2°C° 0 mm 6 m/s 728 mmHg 62%
08:00 +3°C° 0 mm 6 m/s 728 mmHg 54%
09:00 +5°C° 0 mm 6 m/s 728 mmHg 47%
10:00 +8°C° 0 mm 6 m/s 728 mmHg 39%
11:00 +10°C° 0 mm 6 m/s 727 mmHg 32%
12:00 +11°C° 0 mm 6 m/s 727 mmHg 30%
13:00 +13°C° 0 mm 6 m/s 726 mmHg 28%
14:00 +14°C° 0 mm 6 m/s 726 mmHg 26%
15:00 +14°C° 0 mm 6 m/s 726 mmHg 27%
16:00 +14°C° 0 mm 6 m/s 725 mmHg 27%
17:00 +14°C° 0 mm 6 m/s 725 mmHg 28%
18:00 +13°C° 0 mm 5 m/s 725 mmHg 34%
19:00 +10°C° 0 mm 5 m/s 724 mmHg 39%
20:00 +8°C° 0 mm 4 m/s 724 mmHg 45%
21:00 +7°C° 0 mm 4 m/s 724 mmHg 48%
22:00 +7°C° 0 mm 4 m/s 724 mmHg 51%
23:00 +6°C° 0 mm 4 m/s 724 mmHg 53%

15 Abril, Quinta-feira

Tempo Temperatura Precipitação Vento Pressão Humidade
00:00 +5°C° 0 mm 4 m/s 723 mmHg 54%
01:00 +5°C° 0 mm 4 m/s 723 mmHg 56%
02:00 +4°C° 0 mm 4 m/s 723 mmHg 57%
03:00 +4°C° 0 mm 4 m/s 723 mmHg 57%
04:00 +3°C° 0 mm 4 m/s 723 mmHg 58%
05:00 +3°C° 0 mm 3 m/s 723 mmHg 58%
06:00 +4°C° 0 mm 4 m/s 723 mmHg 53%
07:00 +6°C° 0 mm 4 m/s 723 mmHg 48%
08:00 +7°C° 0 mm 5 m/s 723 mmHg 43%
09:00 +9°C° 0 mm 5 m/s 722 mmHg 38%
10:00 +12°C° 0 mm 5 m/s 722 mmHg 33%
11:00 +14°C° 0 mm 6 m/s 722 mmHg 28%
12:00 +15°C° 0 mm 6 m/s 721 mmHg 26%
13:00 +16°C° 0 mm 6 m/s 721 mmHg 24%
14:00 +17°C° 0 mm 6 m/s 721 mmHg 22%
15:00 +17°C° 0 mm 6 m/s 720 mmHg 22%
16:00 +17°C° 0 mm 6 m/s 720 mmHg 22%
17:00 +17°C° 0 mm 5 m/s 719 mmHg 22%
18:00 +15°C° 0 mm 5 m/s 719 mmHg 27%
19:00 +13°C° 0 mm 5 m/s 719 mmHg 32%
20:00 +11°C° 0 mm 4 m/s 718 mmHg 36%
21:00 +11°C° 0 mm 4 m/s 718 mmHg 39%
22:00 +10°C° 0 mm 4 m/s 718 mmHg 42%
23:00 +8°C° 0 mm 4 m/s 718 mmHg 44%

16 Abril, Sexta-feira

Tempo Temperatura Precipitação Vento Pressão Humidade
00:00 +7°C° 0 mm 4 m/s 717 mmHg 46%
01:00 +7°C° 0 mm 4 m/s 717 mmHg 47%
02:00 +7°C° 0 mm 3 m/s 716 mmHg 49%
03:00 +7°C° 0 mm 3 m/s 716 mmHg 49%
04:00 +7°C° 0 mm 3 m/s 716 mmHg 50%
05:00 +5°C° 0 mm 3 m/s 716 mmHg 51%
06:00 +7°C° 0 mm 4 m/s 716 mmHg 48%
07:00 +8°C° 0 mm 4 m/s 715 mmHg 45%
08:00 +11°C° 0 mm 4 m/s 715 mmHg 42%
09:00 +12°C° 0 mm 4 m/s 715 mmHg 37%
10:00 +14°C° 0 mm 4 m/s 715 mmHg 33%
11:00 +17°C° 0 mm 4 m/s 714 mmHg 29%
12:00 +18°C° 0 mm 3 m/s 714 mmHg 27%
13:00 +19°C° 0 mm 3 m/s 713 mmHg 24%
14:00 +19°C° 0 mm 2 m/s 713 mmHg 22%
15:00 +19°C° 0 mm 2 m/s 713 mmHg 23%
16:00 +19°C° 0 mm 2 m/s 712 mmHg 25%
17:00 +19°C° 0 mm 2 m/s 712 mmHg 27%
18:00 +17°C° 0 mm 2 m/s 711 mmHg 32%
19:00 +15°C° 0 mm 2 m/s 711 mmHg 37%
20:00 +13°C° 0 mm 2 m/s 711 mmHg 43%
21:00 +13°C° 0 mm 2 m/s 710 mmHg 46%
22:00 +11°C° 0 mm 3 m/s 710 mmHg 50%
23:00 +11°C° 0 mm 3 m/s 709 mmHg 53%

17 Abril, Sábado

Tempo Temperatura Precipitação Vento Pressão Humidade
00:00 +10°C° 0 mm 3 m/s 709 mmHg 57%
01:00 +10°C° 0 mm 2 m/s 709 mmHg 61%
02:00 +9°C° 0 mm 2 m/s 708 mmHg 65%
03:00 +9°C° 0 mm 2 m/s 708 mmHg 65%
04:00 +8°C° 0 mm 3 m/s 708 mmHg 65%
05:00 +8°C° 0 mm 3 m/s 709 mmHg 66%
06:00 +8°C° 0 mm 4 m/s 709 mmHg 61%
07:00 +10°C° 0 mm 4 m/s 709 mmHg 57%
08:00 +10°C° 0 mm 5 m/s 710 mmHg 52%
09:00 +12°C° 0 mm 5 m/s 710 mmHg 46%
10:00 +14°C° 0 mm 5 m/s 710 mmHg 39%
11:00 +16°C° 0 mm 6 m/s 710 mmHg 33%
12:00 +16°C° 0 mm 6 m/s 710 mmHg 31%
13:00 +17°C° 0 mm 6 m/s 710 mmHg 29%
14:00 +18°C° 0 mm 7 m/s 710 mmHg 26%
15:00 +18°C° 0 mm 7 m/s 709 mmHg 27%
16:00 +18°C° 0 mm 7 m/s 709 mmHg 28%
17:00 +18°C° 0 mm 7 m/s 709 mmHg 28%
18:00 +16°C° 0 mm 6 m/s 709 mmHg 33%
19:00 +15°C° 0 mm 5 m/s 708 mmHg 37%
20:00 +14°C° 0 mm 5 m/s 708 mmHg 41%
21:00 +14°C° 0 mm 5 m/s 707 mmHg 41%
22:00 +13°C° 0 mm 5 m/s 707 mmHg 41%
23:00 +13°C° 0 mm 5 m/s 706 mmHg 41%
Mostrar mais